Time,TemperatureF,DewpointF,PressureIn,WindDirection,WindDirectionDegrees,WindSpeedMPH,WindSpeedGustMPH,Humidity,HourlyPrecipIn,Conditions,Clouds,dailyrainin,SoftwareType,DateUTC
2017-03-26 00:04:00,41.4,40.0,30.18,NNW,338,0.0,-999.0,96,0.00,,,0.00,,2017-03-26 07:04:00,
2017-03-26 00:09:00,41.4,40.0,30.18,NNW,338,0.0,-999.0,96,0.00,,,0.00,,2017-03-26 07:09:00,
2017-03-26 00:14:00,41.4,40.0,30.18,NNW,338,0.0,-999.0,96,0.00,,,0.00,,2017-03-26 07:14:00,
2017-03-26 00:19:00,41.1,40.0,30.18,NNW,338,0.0,-999.0,96,0.00,,,0.00,,2017-03-26 07:19:00,
2017-03-26 00:24:00,41.1,40.0,30.18,NNE,23,0.0,-999.0,96,0.00,,,0.00,,2017-03-26 07:24:00,
2017-03-26 00:29:00,41.1,40.0,30.18,NNW,338,0.0,-999.0,96,0.00,,,0.00,,2017-03-26 07:29:00,
2017-03-26 00:34:00,40.9,39.0,30.18,NNW,338,0.0,-999.0,96,0.00,,,0.00,,2017-03-26 07:34:00,
2017-03-26 00:39:00,40.9,39.0,30.18,WNW,293,0.0,-999.0,96,0.00,,,0.00,,2017-03-26 07:39:00,
2017-03-26 00:44:00,40.9,39.0,30.18,North,0,0.0,-999.0,96,0.00,,,0.00,,2017-03-26 07:44:00,
2017-03-26 00:49:00,40.9,39.0,30.18,NNE,23,0.0,-999.0,96,0.00,,,0.00,,2017-03-26 07:49:00,
2017-03-26 00:59:00,40.5,39.0,30.18,NNW,338,0.0,-999.0,96,0.00,,,0.00,,2017-03-26 07:59:00,
2017-03-26 01:04:00,40.5,39.0,30.18,NNW,338,0.0,-999.0,96,0.00,,,0.00,,2017-03-26 08:04:00,
2017-03-26 01:09:00,40.2,39.0,30.18,North,0,1.0,-999.0,96,0.00,,,0.00,,2017-03-26 08:09:00,
2017-03-26 01:14:00,40.2,39.0,30.18,North,0,0.0,-999.0,96,0.00,,,0.00,,2017-03-26 08:14:00,
2017-03-26 01:19:00,40.0,39.0,30.17,NNW,338,0.0,-999.0,96,0.00,,,0.00,,2017-03-26 08:19:00,
2017-03-26 01:24:00,40.0,39.0,30.17,NNW,338,0.0,-999.0,96,0.00,,,0.00,,2017-03-26 08:24:00,
2017-03-26 01:29:00,40.0,39.0,30.18,NW,315,0.0,-999.0,96,0.00,,,0.00,,2017-03-26 08:29:00,
2017-03-26 01:34:00,40.0,39.0,30.18,NW,315,0.0,-999.0,96,0.00,,,0.00,,2017-03-26 08:34:00,
2017-03-26 01:39:00,39.9,38.0,30.17,NNW,338,0.0,-999.0,96,0.00,,,0.00,,2017-03-26 08:39:00,
2017-03-26 01:44:00,39.9,38.0,30.17,WNW,293,0.0,-999.0,96,0.00,,,0.00,,2017-03-26 08:44:00,
2017-03-26 01:50:00,39.9,39.0,30.18,WNW,293,0.0,-999.0,96,0.00,,,0.00,,2017-03-26 08:50:00,
2017-03-26 01:55:00,40.0,39.0,30.18,NNW,338,0.0,-999.0,96,0.00,,,0.00,,2017-03-26 08:55:00,
2017-03-26 02:05:00,40.2,39.0,30.18,NNW,338,0.0,-999.0,96,0.00,,,0.00,,2017-03-26 09:05:00,
2017-03-26 02:10:00,40.5,39.0,30.17,NW,315,0.0,-999.0,98,0.00,,,0.00,,2017-03-26 09:10:00,
2017-03-26 02:15:00,40.5,40.0,30.18,NNW,338,0.0,-999.0,98,0.00,,,0.00,,2017-03-26 09:15:00,
2017-03-26 02:20:00,40.7,40.0,30.17,North,0,0.0,-999.0,98,0.00,,,0.00,,2017-03-26 09:20:00,
2017-03-26 02:25:00,40.7,40.0,30.18,North,0,0.0,-999.0,98,0.00,,,0.00,,2017-03-26 09:25:00,
2017-03-26 02:31:00,40.9,40.0,30.17,North,0,0.0,-999.0,98,0.00,,,0.00,,2017-03-26 09:31:00,
2017-03-26 02:36:00,40.9,40.0,30.17,WNW,293,0.0,-999.0,98,0.00,,,0.00,,2017-03-26 09:36:00,
2017-03-26 02:42:00,40.9,40.0,30.17,NNW,338,0.0,-999.0,98,0.00,,,0.00,,2017-03-26 09:42:00,
2017-03-26 02:48:00,40.9,40.0,30.17,NNW,338,0.0,-999.0,98,0.00,,,0.00,,2017-03-26 09:48:00,
2017-03-26 02:53:00,40.9,40.0,30.18,North,0,0.0,-999.0,98,0.00,,,0.00,,2017-03-26 09:53:00,
2017-03-26 02:59:00,40.9,40.0,30.17,NE,45,0.0,-999.0,98,0.00,,,0.00,,2017-03-26 09:59:00,
2017-03-26 03:04:00,40.9,40.0,30.18,WNW,293,0.0,-999.0,98,0.00,,,0.00,,2017-03-26 10:04:00,
2017-03-26 03:10:00,41.1,40.0,30.17,WNW,293,0.0,-999.0,98,0.00,,,0.00,,2017-03-26 10:10:00,
2017-03-26 03:16:00,41.1,40.0,30.17,WNW,293,0.0,-999.0,98,0.00,,,0.00,,2017-03-26 10:16:00,
2017-03-26 03:21:00,41.4,40.0,30.17,West,270,0.0,-999.0,98,0.00,,,0.00,,2017-03-26 10:21:00,
2017-03-26 03:27:00,41.5,40.0,30.16,West,270,0.0,-999.0,98,0.00,,,0.00,,2017-03-26 10:27:00,
2017-03-26 03:33:00,41.7,41.0,30.16,NNW,338,0.0,-999.0,98,0.00,,,0.00,,2017-03-26 10:33:00,
2017-03-26 03:38:00,41.7,41.0,30.16,NW,315,0.0,-999.0,98,0.00,,,0.00,,2017-03-26 10:38:00,
2017-03-26 03:44:00,41.9,41.0,30.15,West,270,0.0,-999.0,98,0.00,,,0.00,,2017-03-26 10:44:00,
2017-03-26 03:49:00,42.1,41.0,30.15,West,270,0.0,-999.0,98,0.00,,,0.00,,2017-03-26 10:49:00,
2017-03-26 03:55:00,42.1,41.0,30.15,West,270,0.0,-999.0,98,0.00,,,0.00,,2017-03-26 10:55:00,
2017-03-26 04:01:00,42.1,41.0,30.15,WNW,293,0.0,-999.0,98,0.00,,,0.00,,2017-03-26 11:01:00,
2017-03-26 04:06:00,42.1,41.0,30.15,ESE,113,0.0,-999.0,98,0.00,,,0.00,,2017-03-26 11:06:00,
2017-03-26 04:12:00,42.1,41.0,30.15,North,0,0.0,-999.0,98,0.00,,,0.00,,2017-03-26 11:12:00,
2017-03-26 04:18:00,42.1,41.0,30.15,NNE,23,0.0,-999.0,98,0.00,,,0.00,,2017-03-26 11:18:00,
2017-03-26 04:23:00,42.3,41.0,30.15,North,0,0.0,-999.0,98,0.00,,,0.00,,2017-03-26 11:23:00,
2017-03-26 04:29:00,42.3,42.0,30.15,North,0,0.0,-999.0,98,0.00,,,0.00,,2017-03-26 11:29:00,
2017-03-26 04:34:00,42.3,42.0,30.14,NNW,338,0.0,-999.0,98,0.00,,,0.00,,2017-03-26 11:34:00,
2017-03-26 04:40:00,42.4,42.0,30.14,NNW,338,0.0,-999.0,98,0.00,,,0.00,,2017-03-26 11:40:00,
2017-03-26 04:46:00,42.4,42.0,30.14,NNW,338,0.0,-999.0,98,0.00,,,0.00,,2017-03-26 11:46:00,
2017-03-26 04:51:00,42.4,42.0,30.13,NNW,338,0.0,-999.0,98,0.00,,,0.00,,2017-03-26 11:51:00,
2017-03-26 04:57:00,42.5,42.0,30.12,WNW,293,0.0,-999.0,98,0.00,,,0.00,,2017-03-26 11:57:00,
2017-03-26 05:03:00,42.5,42.0,30.13,WNW,293,0.0,-999.0,98,0.00,,,0.00,,2017-03-26 12:03:00,
2017-03-26 05:14:00,42.7,42.0,30.13,NW,315,0.0,-999.0,98,0.00,,,0.00,,2017-03-26 12:14:00,
2017-03-26 05:19:00,42.7,42.0,30.14,NNE,23,0.0,-999.0,98,0.00,,,0.00,,2017-03-26 12:19:00,
2017-03-26 05:25:00,43.0,42.0,30.14,NNW,338,0.0,-999.0,98,0.00,,,0.00,,2017-03-26 12:25:00,
2017-03-26 05:31:00,43.0,42.0,30.14,WNW,293,0.0,-999.0,98,0.00,,,0.00,,2017-03-26 12:31:00,
2017-03-26 05:36:00,43.0,42.0,30.14,NNW,338,0.0,-999.0,98,0.00,,,0.00,,2017-03-26 12:36:00,
2017-03-26 05:42:00,43.0,42.0,30.15,NNW,338,0.0,-999.0,98,0.00,,,0.00,,2017-03-26 12:42:00,
2017-03-26 05:48:00,43.0,42.0,30.14,NNW,338,0.0,-999.0,98,0.00,,,0.00,,2017-03-26 12:48:00,
2017-03-26 05:53:00,43.2,42.0,30.14,North,0,0.0,-999.0,98,0.00,,,0.00,,2017-03-26 12:53:00,
2017-03-26 05:58:00,43.2,42.0,30.14,NNW,338,0.0,-999.0,98,0.00,,,0.00,,2017-03-26 12:58:00,
2017-03-26 06:03:00,43.2,42.0,30.15,NNW,338,0.0,-999.0,98,0.00,,,0.00,,2017-03-26 13:03:00,
2017-03-26 06:08:00,43.2,42.0,30.15,NW,315,0.0,-999.0,98,0.00,,,0.00,,2017-03-26 13:08:00,
2017-03-26 06:13:00,43.2,42.0,30.15,North,0,0.0,-999.0,98,0.00,,,0.00,,2017-03-26 13:13:00,
2017-03-26 06:18:00,43.2,43.0,30.15,NW,315,0.0,-999.0,98,0.00,,,0.00,,2017-03-26 13:18:00,
2017-03-26 06:23:00,43.2,43.0,30.15,North,0,0.0,-999.0,98,0.00,,,0.00,,2017-03-26 13:23:00,
2017-03-26 06:28:00,43.2,43.0,30.15,NW,315,0.0,-999.0,98,0.00,,,0.00,,2017-03-26 13:28:00,
2017-03-26 06:33:00,43.2,43.0,30.15,North,0,0.0,-999.0,98,0.00,,,0.00,,2017-03-26 13:33:00,
2017-03-26 06:38:00,43.2,43.0,30.15,WNW,293,0.0,-999.0,98,0.00,,,0.00,,2017-03-26 13:38:00,
2017-03-26 06:43:00,43.2,43.0,30.15,NNW,338,0.0,-999.0,98,0.00,,,0.00,,2017-03-26 13:43:00,
2017-03-26 06:48:00,43.2,43.0,30.15,NW,315,0.0,-999.0,98,0.00,,,0.00,,2017-03-26 13:48:00,
2017-03-26 06:53:00,43.2,43.0,30.15,WNW,293,0.0,-999.0,98,0.00,,,0.00,,2017-03-26 13:53:00,
2017-03-26 06:58:00,43.4,43.0,30.16,North,0,0.0,-999.0,98,0.00,,,0.00,,2017-03-26 13:58:00,
2017-03-26 06:59:00,43.4,43.0,30.16,NNE,23,0.0,-999.0,98,0.00,,,0.00,,2017-03-26 13:59:00,
2017-03-26 07:04:00,43.4,43.0,30.16,North,0,0.0,-999.0,98,0.00,,,0.00,,2017-03-26 14:04:00,
2017-03-26 07:09:00,43.4,43.0,30.16,NNE,23,0.0,-999.0,98,0.00,,,0.00,,2017-03-26 14:09:00,
2017-03-26 07:14:00,43.4,43.0,30.17,North,0,0.0,-999.0,98,0.00,,,0.00,,2017-03-26 14:14:00,
2017-03-26 07:19:00,43.4,43.0,30.16,NNW,338,0.0,-999.0,98,0.00,,,0.00,,2017-03-26 14:19:00,
2017-03-26 07:24:00,43.6,43.0,30.17,NNE,23,0.0,-999.0,98,0.00,,,0.00,,2017-03-26 14:24:00,
2017-03-26 07:29:00,43.6,43.0,30.16,NNW,338,0.0,-999.0,98,0.00,,,0.00,,2017-03-26 14:29:00,
2017-03-26 07:34:00,43.9,43.0,30.17,WNW,293,0.0,-999.0,98,0.00,,,0.00,,2017-03-26 14:34:00,
2017-03-26 07:39:00,43.9,43.0,30.18,NNW,338,0.0,-999.0,98,0.00,,,0.00,,2017-03-26 14:39:00,
2017-03-26 07:44:00,43.9,43.0,30.18,NNE,23,0.0,-999.0,98,0.00,,,0.00,,2017-03-26 14:44:00,
2017-03-26 07:49:00,44.0,43.0,30.17,NNE,23,0.0,-999.0,98,0.00,,,0.00,,2017-03-26 14:49:00,
2017-03-26 07:54:00,44.2,43.0,30.17,SW,225,0.0,-999.0,98,0.00,,,0.00,,2017-03-26 14:54:00,
2017-03-26 07:59:00,44.2,43.0,30.17,SW,225,0.0,-999.0,98,0.00,,,0.00,,2017-03-26 14:59:00,
2017-03-26 08:04:00,44.2,43.0,30.17,SW,225,0.0,-999.0,98,0.00,,,0.00,,2017-03-26 15:04:00,
2017-03-26 08:09:00,44.4,44.0,30.17,WNW,293,0.0,-999.0,98,0.00,,,0.00,,2017-03-26 15:09:00,
2017-03-26 08:14:00,44.4,44.0,30.17,WNW,293,0.0,-999.0,98,0.00,,,0.00,,2017-03-26 15:14:00,
2017-03-26 08:19:00,44.6,44.0,30.18,NNE,23,0.0,-999.0,98,0.00,,,0.00,,2017-03-26 15:19:00,
2017-03-26 08:24:00,44.6,44.0,30.17,North,0,0.0,-999.0,98,0.00,,,0.00,,2017-03-26 15:24:00,
2017-03-26 08:29:00,44.8,44.0,30.17,NE,45,0.0,-999.0,98,0.00,,,0.00,,2017-03-26 15:29:00,
2017-03-26 08:39:00,45.0,43.0,30.17,WNW,293,0.0,-999.0,96,0.00,,,0.00,,2017-03-26 15:39:00,
2017-03-26 08:44:00,45.0,43.0,30.17,East,90,0.0,-999.0,95,0.00,,,0.00,,2017-03-26 15:44:00,
2017-03-26 08:49:00,45.0,43.0,30.18,East,90,0.0,-999.0,93,0.00,,,0.00,,2017-03-26 15:49:00,
2017-03-26 08:54:00,45.2,43.0,30.18,North,0,0.0,-999.0,91,0.00,,,0.00,,2017-03-26 15:54:00,
2017-03-26 08:59:00,45.5,43.0,30.18,NNW,338,0.0,-999.0,93,0.00,,,0.00,,2017-03-26 15:59:00,
2017-03-26 09:04:00,45.5,43.0,30.18,ESE,113,0.0,-999.0,91,0.00,,,0.00,,2017-03-26 16:04:00,
2017-03-26 09:09:00,45.7,43.0,30.19,ESE,113,0.0,-999.0,91,0.00,,,0.00,,2017-03-26 16:09:00,
2017-03-26 09:14:00,45.9,43.0,30.19,SW,225,0.0,-999.0,91,0.00,,,0.00,,2017-03-26 16:14:00,
2017-03-26 09:19:00,45.9,43.0,30.19,North,0,0.0,-999.0,91,0.00,,,0.00,,2017-03-26 16:19:00,
2017-03-26 09:24:00,45.9,43.0,30.19,NNW,338,0.0,-999.0,91,0.00,,,0.00,,2017-03-26 16:24:00,
2017-03-26 09:29:00,45.9,44.0,30.19,NNE,23,0.0,-999.0,93,0.00,,,0.00,,2017-03-26 16:29:00,
2017-03-26 09:34:00,46.1,43.0,30.19,WNW,293,0.0,-999.0,88,0.00,,,0.00,,2017-03-26 16:34:00,
2017-03-26 09:39:00,46.1,42.0,30.19,East,90,0.0,-999.0,88,0.00,,,0.00,,2017-03-26 16:39:00,
2017-03-26 09:44:00,46.4,43.0,30.19,West,270,0.0,-999.0,90,0.00,,,0.00,,2017-03-26 16:44:00,
2017-03-26 09:49:00,46.7,43.0,30.20,WSW,248,0.0,-999.0,88,0.00,,,0.00,,2017-03-26 16:49:00,
2017-03-26 09:54:00,46.7,43.0,30.20,NNE,23,0.0,-999.0,88,0.00,,,0.00,,2017-03-26 16:54:00,
2017-03-26 09:59:00,47.1,43.0,30.20,SSE,158,0.0,-999.0,86,0.00,,,0.00,,2017-03-26 16:59:00,
2017-03-26 10:04:00,47.3,42.0,30.20,NNW,338,0.0,-999.0,83,0.00,,,0.00,,2017-03-26 17:04:00,
2017-03-26 10:09:00,47.5,43.0,30.20,West,270,0.0,-999.0,86,0.00,,,0.00,,2017-03-26 17:09:00,
2017-03-26 10:14:00,47.7,42.0,30.20,North,0,0.0,-999.0,83,0.00,,,0.00,,2017-03-26 17:14:00,
2017-03-26 10:19:00,47.7,43.0,30.20,North,0,0.0,-999.0,85,0.00,,,0.00,,2017-03-26 17:19:00,
2017-03-26 10:24:00,47.7,42.0,30.20,West,270,0.0,-999.0,81,0.00,,,0.00,,2017-03-26 17:24:00,
2017-03-26 10:29:00,48.0,43.0,30.20,SW,225,0.0,-999.0,83,0.00,,,0.00,,2017-03-26 17:29:00,
2017-03-26 10:34:00,48.4,42.0,30.21,WSW,248,0.0,-999.0,80,0.00,,,0.00,,2017-03-26 17:34:00,
2017-03-26 10:39:00,48.5,42.0,30.21,North,0,0.0,-999.0,79,0.00,,,0.00,,2017-03-26 17:39:00,
2017-03-26 10:44:00,49.0,43.0,30.21,NNW,338,0.0,-999.0,80,0.00,,,0.00,,2017-03-26 17:44:00,
2017-03-26 10:49:00,49.6,42.0,30.20,SSE,158,0.0,-999.0,75,0.00,,,0.00,,2017-03-26 17:49:00,
2017-03-26 10:54:00,49.8,42.0,30.20,SW,225,0.0,-999.0,75,0.00,,,0.00,,2017-03-26 17:54:00,
2017-03-26 10:59:00,50.3,40.0,30.21,NW,315,1.0,-999.0,69,0.00,,,0.00,,2017-03-26 17:59:00,
2017-03-26 11:04:00,50.5,41.0,30.21,SSW,203,0.0,-999.0,71,0.00,,,0.00,,2017-03-26 18:04:00,
2017-03-26 11:09:00,50.7,40.0,30.21,South,180,0.0,-999.0,68,0.00,,,0.00,,2017-03-26 18:09:00,
2017-03-26 11:14:00,50.9,40.0,30.21,SW,225,0.0,-999.0,66,0.00,,,0.00,,2017-03-26 18:14:00,
2017-03-26 11:19:00,51.3,41.0,30.20,SSE,158,0.0,-999.0,68,0.00,,,0.00,,2017-03-26 18:19:00,
2017-03-26 11:24:00,51.4,41.0,30.20,NNW,338,1.0,-999.0,70,0.00,,,0.00,,2017-03-26 18:24:00,
2017-03-26 11:29:00,51.8,41.0,30.21,SSE,158,0.0,-999.0,68,0.00,,,0.00,,2017-03-26 18:29:00,
2017-03-26 11:34:00,52.2,39.0,30.20,SSE,158,1.0,-999.0,61,0.00,,,0.00,,2017-03-26 18:34:00,
2017-03-26 11:39:00,52.2,40.0,30.20,West,270,2.0,-999.0,65,0.00,,,0.00,,2017-03-26 18:39:00,
2017-03-26 11:44:00,52.5,40.0,30.20,SSW,203,1.0,-999.0,63,0.00,,,0.00,,2017-03-26 18:44:00,
2017-03-26 11:49:00,52.8,39.0,30.20,ESE,113,1.0,-999.0,61,0.00,,,0.00,,2017-03-26 18:49:00,
2017-03-26 11:54:00,52.8,38.0,30.20,SSE,158,0.0,-999.0,59,0.00,,,0.00,,2017-03-26 18:54:00,